Time,TemperatureF,DewpointF,PressureIn,WindDirection,WindDirectionDegrees,WindSpeedMPH,WindSpeedGustMPH,Humidity,HourlyPrecipIn,Conditions,Clouds,dailyrainin,SoftwareType,DateUTC
2013-04-07 00:03:00,28.0,6.0,-100.00,SSE,160,2.0,6.0,38,0.00,,,-99.99,,2013-04-07 04:03:00,
2013-04-07 00:14:00,28.0,6.0,-100.00,ENE,70,1.0,3.0,38,0.00,,,-99.99,,2013-04-07 04:14:00,
2013-04-07 00:23:00,27.0,7.0,-100.00,SSE,165,1.0,2.0,41,0.00,,,-99.99,,2013-04-07 04:23:00,
2013-04-07 00:32:00,28.0,2.0,-100.00,North,-999,-999.0,-999.0,31,0.00,,,-99.99,,2013-04-07 04:32:00,
2013-04-07 00:43:00,28.0,2.0,-100.00,South,170,4.0,8.0,32,0.00,,,-99.99,,2013-04-07 04:43:00,
2013-04-07 00:52:00,28.0,2.0,-100.00,South,180,3.0,5.0,33,0.00,,,-99.99,,2013-04-07 04:52:00,
2013-04-07 01:02:00,28.0,7.0,-100.00,SSE,165,2.0,3.0,40,0.00,,,-99.99,,2013-04-07 05:02:00,
2013-04-07 01:12:00,28.0,6.0,-100.00,South,170,2.0,4.0,39,0.00,,,-99.99,,2013-04-07 05:12:00,
2013-04-07 01:23:00,27.0,5.0,-100.00,South,170,2.0,4.0,37,0.00,,,-99.99,,2013-04-07 05:23:00,
2013-04-07 01:33:00,27.0,6.0,-100.00,South,170,4.0,6.0,38,0.00,,,-99.99,,2013-04-07 05:33:00,
2013-04-07 01:43:00,28.0,3.0,-100.00,South,170,5.0,7.0,34,0.00,,,-99.99,,2013-04-07 05:43:00,
2013-04-07 01:52:00,28.0,4.0,-100.00,North,-999,-999.0,-999.0,36,-99.99,,,-99.99,,2013-04-07 05:52:00,
2013-04-07 02:02:00,28.0,3.0,-100.00,South,170,5.0,8.0,32,0.00,,,-99.99,,2013-04-07 06:02:00,
2013-04-07 02:12:00,27.0,4.0,-100.00,South,170,6.0,9.0,36,0.00,,,-99.99,,2013-04-07 06:12:00,
2013-04-07 02:22:00,27.0,3.0,-100.00,South,170,5.0,9.0,34,0.00,,,-99.99,,2013-04-07 06:22:00,
2013-04-07 02:32:00,28.0,2.0,-100.00,South,170,5.0,7.0,31,0.00,,,-99.99,,2013-04-07 06:32:00,
2013-04-07 02:42:00,28.0,4.0,-100.00,SSE,165,4.0,7.0,35,0.00,,,-99.99,,2013-04-07 06:42:00,
2013-04-07 02:52:00,27.0,6.0,-100.00,SSE,165,5.0,7.0,38,0.00,,,-99.99,,2013-04-07 06:52:00,
2013-04-07 03:02:00,28.0,3.0,-100.00,South,170,5.0,9.0,33,0.00,,,-99.99,,2013-04-07 07:02:00,
2013-04-07 03:12:00,28.0,2.0,-100.00,SSE,165,6.0,7.0,32,0.00,,,-99.99,,2013-04-07 07:12:00,
2013-04-07 03:22:00,28.0,1.0,-100.00,SSE,165,6.0,9.0,30,0.00,,,-99.99,,2013-04-07 07:22:00,
2013-04-07 03:32:00,28.0,1.0,-100.00,South,170,6.0,9.0,30,0.00,,,-99.99,,2013-04-07 07:32:00,
2013-04-07 03:42:00,28.0,1.0,-100.00,South,170,7.0,11.0,30,0.00,,,-99.99,,2013-04-07 07:42:00,
2013-04-07 03:52:00,29.0,0.0,-100.00,SSE,165,7.0,9.0,29,0.00,,,-99.99,,2013-04-07 07:52:00,
2013-04-07 04:02:00,28.0,2.0,-100.00,SSE,165,4.0,12.0,32,0.00,,,-99.99,,2013-04-07 08:02:00,
2013-04-07 04:12:00,28.0,2.0,-100.00,SSE,165,5.0,7.0,31,0.00,,,-99.99,,2013-04-07 08:12:00,
2013-04-07 04:22:00,29.0,0.0,-100.00,SSE,165,7.0,11.0,28,0.00,,,-99.99,,2013-04-07 08:22:00,
2013-04-07 04:33:00,29.0,1.0,-100.00,SSE,160,6.0,12.0,30,0.00,,,-99.99,,2013-04-07 08:33:00,
2013-04-07 04:42:00,29.0,0.0,-100.00,SSE,165,6.0,11.0,29,0.00,,,-99.99,,2013-04-07 08:42:00,
2013-04-07 04:52:00,29.0,1.0,-100.00,South,170,6.0,11.0,29,0.00,,,-99.99,,2013-04-07 08:52:00,
2013-04-07 05:02:00,29.0,1.0,-100.00,SSE,165,9.0,12.0,28,0.00,,,-99.99,,2013-04-07 09:02:00,
2013-04-07 05:12:00,29.0,1.0,-100.00,SSE,165,6.0,11.0,28,0.00,,,-99.99,,2013-04-07 09:12:00,
2013-04-07 05:22:00,29.0,1.0,-100.00,SSE,165,7.0,11.0,28,0.00,,,-99.99,,2013-04-07 09:22:00,
2013-04-07 05:33:00,29.0,2.0,-100.00,South,175,8.0,11.0,30,0.00,,,-99.99,,2013-04-07 09:33:00,
2013-04-07 05:43:00,28.0,2.0,-100.00,South,175,7.0,11.0,31,0.00,,,-99.99,,2013-04-07 09:43:00,
2013-04-07 05:53:00,28.0,2.0,-100.00,North,-999,-999.0,-999.0,32,0.00,,,-99.99,,2013-04-07 09:53:00,
2013-04-07 06:04:00,28.0,2.0,-100.00,SSE,165,7.0,11.0,31,0.00,,,-99.99,,2013-04-07 10:04:00,
2013-04-07 06:13:00,28.0,2.0,-100.00,South,170,6.0,11.0,32,0.00,,,-99.99,,2013-04-07 10:13:00,
2013-04-07 06:23:00,28.0,2.0,-100.00,South,170,7.0,10.0,32,0.00,,,-99.99,,2013-04-07 10:23:00,
2013-04-07 06:33:00,28.0,3.0,-100.00,South,175,7.0,9.0,34,0.00,,,-99.99,,2013-04-07 10:33:00,
2013-04-07 06:43:00,28.0,3.0,-100.00,SSE,165,7.0,12.0,33,0.00,,,-99.99,,2013-04-07 10:43:00,
2013-04-07 06:53:00,28.0,3.0,-100.00,South,180,6.0,10.0,33,0.00,,,-99.99,,2013-04-07 10:53:00,
2013-04-07 07:03:00,28.0,3.0,-100.00,SSE,165,9.0,11.0,33,0.00,,,-99.99,,2013-04-07 11:03:00,
2013-04-07 07:12:00,29.0,3.0,-100.00,North,-999,-999.0,-999.0,32,-99.99,,,-99.99,,2013-04-07 11:12:00,
2013-04-07 07:22:00,29.0,3.0,-100.00,SSE,165,7.0,12.0,32,0.00,,,-99.99,,2013-04-07 11:22:00,
2013-04-07 07:33:00,29.0,3.0,-100.00,South,170,11.0,14.0,31,0.00,,,-99.99,,2013-04-07 11:33:00,
2013-04-07 07:42:00,30.0,2.0,-100.00,SSE,160,11.0,15.0,30,0.00,,,-99.99,,2013-04-07 11:42:00,
2013-04-07 07:52:00,31.0,2.0,-100.00,SSE,165,9.0,14.0,29,0.00,,,-99.99,,2013-04-07 11:52:00,
2013-04-07 08:02:00,31.0,2.0,-100.00,South,175,11.0,16.0,28,0.00,,,-99.99,,2013-04-07 12:02:00,
2013-04-07 08:12:00,31.0,2.0,-100.00,SSE,165,11.0,16.0,28,0.00,,,-99.99,,2013-04-07 12:12:00,
2013-04-07 08:23:00,32.0,3.0,-100.00,South,170,12.0,17.0,28,0.00,,,-99.99,,2013-04-07 12:23:00,
2013-04-07 08:34:00,32.0,3.0,-100.00,SSE,165,12.0,16.0,28,0.00,,,-99.99,,2013-04-07 12:34:00,
2013-04-07 08:43:00,32.0,4.0,-100.00,South,170,12.0,17.0,29,0.00,,,-99.99,,2013-04-07 12:43:00,
2013-04-07 08:53:00,33.0,4.0,-100.00,SSE,165,12.0,19.0,29,0.00,,,-99.99,,2013-04-07 12:53:00,
2013-04-07 09:04:00,34.0,5.0,-100.00,South,170,12.0,17.0,29,0.00,,,-99.99,,2013-04-07 13:04:00,
2013-04-07 09:13:00,34.0,6.0,-100.00,SSE,165,12.0,17.0,29,0.00,,,-99.99,,2013-04-07 13:13:00,
2013-04-07 09:22:00,34.0,7.0,-100.00,SSE,165,12.0,17.0,30,0.00,,,-99.99,,2013-04-07 13:22:00,
2013-04-07 09:32:00,35.0,7.0,-100.00,South,170,11.0,15.0,31,0.00,,,-99.99,,2013-04-07 13:32:00,
2013-04-07 09:42:00,34.0,8.0,-100.00,SSE,165,11.0,16.0,32,0.00,,,-99.99,,2013-04-07 13:42:00,
2013-04-07 09:52:00,35.0,9.0,-100.00,South,170,12.0,16.0,34,0.00,,,-99.99,,2013-04-07 13:52:00,
2013-04-07 10:02:00,34.0,9.0,-100.00,SSE,165,11.0,14.0,34,0.00,,,-99.99,,2013-04-07 14:02:00,
2013-04-07 10:12:00,34.0,11.0,-100.00,SSE,165,9.0,16.0,38,0.00,,,-99.99,,2013-04-07 14:12:00,
2013-04-07 10:23:00,34.0,11.0,-100.00,South,170,9.0,15.0,38,0.00,,,-99.99,,2013-04-07 14:23:00,
2013-04-07 10:33:00,35.0,12.0,-100.00,South,175,10.0,14.0,38,0.00,,,-99.99,,2013-04-07 14:33:00,
2013-04-07 10:43:00,36.0,13.0,-100.00,South,170,14.0,18.0,38,0.00,,,-99.99,,2013-04-07 14:43:00,
2013-04-07 10:53:00,37.0,13.0,-100.00,South,170,12.0,17.0,36,0.00,,,-99.99,,2013-04-07 14:53:00,
2013-04-07 11:03:00,37.0,14.0,-100.00,SSE,165,11.0,17.0,37,0.00,,,-99.99,,2013-04-07 15:03:00,
2013-04-07 11:13:00,39.0,15.0,-100.00,SSE,160,16.0,22.0,36,0.00,,,-99.99,,2013-04-07 15:13:00,
2013-04-07 11:22:00,41.0,16.0,-100.00,South,180,12.0,21.0,36,0.00,,,-99.99,,2013-04-07 15:22:00,
2013-04-07 11:34:00,40.0,16.0,-100.00,SW,215,15.0,28.0,36,0.00,,,-99.99,,2013-04-07 15:34:00,
2013-04-07 11:44:00,41.0,15.0,-100.00,South,170,16.0,28.0,34,0.00,,,-99.99,,2013-04-07 15:44:00,
2013-04-07 11:53:00,41.0,13.0,-100.00,South,170,16.0,28.0,31,0.00,,,-99.99,,2013-04-07 15:53:00,
2013-04-07 12:04:00,42.0,13.0,-100.00,SSW,195,10.0,26.0,30,0.00,,,-99.99,,2013-04-07 16:04:00,
2013-04-07 12:13:00,43.0,13.0,-100.00,SSW,210,12.0,21.0,28,0.00,,,-99.99,,2013-04-07 16:13:00,
2013-04-07 12:24:00,43.0,11.0,-100.00,SSW,200,14.0,24.0,26,0.00,,,-99.99,,2013-04-07 16:24:00,
2013-04-07 12:33:00,42.0,10.0,-100.00,SSE,165,14.0,33.0,26,0.00,,,-99.99,,2013-04-07 16:33:00,
2013-04-07 12:43:00,43.0,10.0,-100.00,SSW,200,9.0,17.0,25,0.00,,,-99.99,,2013-04-07 16:43:00,
2013-04-07 12:53:00,45.0,12.0,-100.00,SSE,165,11.0,19.0,25,0.00,,,-99.99,,2013-04-07 16:53:00,
2013-04-07 13:05:00,46.0,11.0,-100.00,SSW,205,8.0,21.0,24,0.00,,,-99.99,,2013-04-07 17:05:00,
2013-04-07 13:13:00,45.0,11.0,-100.00,South,170,11.0,19.0,24,0.00,,,-99.99,,2013-04-07 17:13:00,
2013-04-07 13:23:00,46.0,11.0,-100.00,SSW,200,11.0,19.0,23,0.00,,,-99.99,,2013-04-07 17:23:00,
2013-04-07 13:33:00,46.0,11.0,-100.00,South,180,12.0,23.0,23,0.00,,,-99.99,,2013-04-07 17:33:00,
2013-04-07 13:43:00,47.0,12.0,-100.00,South,185,9.0,22.0,24,0.00,,,-99.99,,2013-04-07 17:43:00,
2013-04-07 13:52:00,48.0,13.0,-100.00,South,185,10.0,26.0,24,0.00,,,-99.99,,2013-04-07 17:52:00,
2013-04-07 14:02:00,48.0,13.0,-100.00,SSE,165,14.0,22.0,24,0.00,,,-99.99,,2013-04-07 18:02:00,
2013-04-07 14:13:00,49.0,14.0,-100.00,SSW,205,14.0,28.0,24,0.00,,,-99.99,,2013-04-07 18:13:00,
2013-04-07 14:23:00,51.0,15.0,-100.00,South,185,11.0,20.0,24,0.00,,,-99.99,,2013-04-07 18:23:00,
2013-04-07 14:33:00,51.0,16.0,-100.00,South,175,14.0,25.0,24,0.00,,,-99.99,,2013-04-07 18:33:00,
2013-04-07 14:43:00,51.0,16.0,-100.00,South,180,7.0,24.0,24,0.00,,,-99.99,,2013-04-07 18:43:00,
2013-04-07 14:52:00,51.0,17.0,-100.00,SW,225,14.0,23.0,25,0.00,,,-99.99,,2013-04-07 18:52:00,
2013-04-07 15:03:00,50.0,17.0,-100.00,SSE,160,13.0,21.0,26,0.00,,,-99.99,,2013-04-07 19:03:00,
2013-04-07 15:12:00,51.0,18.0,-100.00,SSE,160,17.0,26.0,26,0.00,,,-99.99,,2013-04-07 19:12:00,
2013-04-07 15:22:00,52.0,18.0,-100.00,SSW,195,10.0,20.0,26,0.00,,,-99.99,,2013-04-07 19:22:00,
2013-04-07 15:33:00,50.0,19.0,-100.00,SSW,195,17.0,31.0,28,0.00,,,-99.99,,2013-04-07 19:33:00,
2013-04-07 15:42:00,51.0,19.0,-100.00,SSW,210,17.0,31.0,28,0.00,,,-99.99,,2013-04-07 19:42:00,
2013-04-07 15:53:00,51.0,19.0,-100.00,South,175,16.0,26.0,28,0.00,,,-99.99,,2013-04-07 19:53:00,
2013-04-07 16:03:00,51.0,20.0,-100.00,South,175,16.0,26.0,29,0.00,,,-99.99,,2013-04-07 20:03:00,
2013-04-07 16:13:00,51.0,20.0,-100.00,South,190,11.0,21.0,29,0.00,,,-99.99,,2013-04-07 20:13:00,
2013-04-07 16:22:00,51.0,20.0,-100.00,SSW,195,13.0,21.0,29,0.00,,,-99.99,,2013-04-07 20:22:00,
2013-04-07 16:33:00,52.0,22.0,-100.00,SSW,195,7.0,22.0,29,0.00,,,-99.99,,2013-04-07 20:33:00,
2013-04-07 16:43:00,53.0,22.0,-100.00,South,170,9.0,21.0,29,0.00,,,-99.99,,2013-04-07 20:43:00,
2013-04-07 16:52:00,53.0,22.0,-100.00,South,190,11.0,23.0,29,0.00,,,-99.99,,2013-04-07 20:52:00,
2013-04-07 17:03:00,53.0,22.0,-100.00,SSW,210,14.0,24.0,30,0.00,,,-99.99,,2013-04-07 21:03:00,
2013-04-07 17:13:00,53.0,23.0,-100.00,SSW,200,9.0,17.0,30,0.00,,,-99.99,,2013-04-07 21:13:00,
2013-04-07 17:22:00,51.0,24.0,-100.00,WSW,240,8.0,23.0,33,0.00,,,-99.99,,2013-04-07 21:22:00,
2013-04-07 17:34:00,51.0,24.0,-100.00,SSW,195,8.0,27.0,34,0.00,,,-99.99,,2013-04-07 21:34:00,
2013-04-07 17:43:00,51.0,24.0,-100.00,SSW,200,7.0,16.0,34,0.00,,,-99.99,,2013-04-07 21:43:00,
2013-04-07 17:53:00,50.0,24.0,-100.00,SSW,195,12.0,23.0,36,0.00,,,-99.99,,2013-04-07 21:53:00,
2013-04-07 18:04:00,50.0,24.0,-100.00,SW,220,11.0,23.0,36,0.00,,,-99.99,,2013-04-07 22:04:00,
2013-04-07 18:14:00,51.0,25.0,-100.00,South,185,9.0,21.0,36,0.00,,,-99.99,,2013-04-07 22:14:00,
2013-04-07 18:23:00,50.0,25.0,-100.00,South,175,7.0,18.0,37,0.00,,,-99.99,,2013-04-07 22:23:00,
2013-04-07 18:34:00,49.0,26.0,-100.00,SSW,200,16.0,26.0,40,0.00,,,-99.99,,2013-04-07 22:34:00,
2013-04-07 18:43:00,49.0,26.0,-100.00,South,175,12.0,22.0,40,0.00,,,-99.99,,2013-04-07 22:43:00,
2013-04-07 18:53:00,49.0,26.0,-100.00,South,190,11.0,21.0,40,0.00,,,-99.99,,2013-04-07 22:53:00,
2013-04-07 19:13:00,47.0,26.0,-100.00,SSW,200,14.0,29.0,42,0.00,,,-99.99,,2013-04-07 23:13:00,
2013-04-07 19:22:00,47.0,26.0,-100.00,SSE,160,12.0,22.0,44,0.00,,,-99.99,,2013-04-07 23:22:00,
2013-04-07 19:32:00,46.0,27.0,-100.00,SSW,195,9.0,20.0,46,0.00,,,-99.99,,2013-04-07 23:32:00,
2013-04-07 19:43:00,46.0,27.0,-100.00,South,180,8.0,21.0,47,0.00,,,-99.99,,2013-04-07 23:43:00,
2013-04-07 19:52:00,45.0,27.0,-100.00,South,185,9.0,23.0,48,0.00,,,-99.99,,2013-04-07 23:52:00,
2013-04-07 20:02:00,45.0,27.0,-100.00,South,175,8.0,15.0,50,0.00,,,-99.99,,2013-04-08 00:02:00,
2013-04-07 20:12:00,44.0,28.0,-100.00,North,-999,-999.0,-999.0,52,-99.99,,,-99.99,,2013-04-08 00:12:00,
2013-04-07 20:22:00,44.0,28.0,-100.00,South,180,11.0,17.0,52,0.00,,,-99.99,,2013-04-08 00:22:00,
2013-04-07 20:32:00,44.0,28.0,-100.00,South,170,10.0,19.0,53,0.00,,,-99.99,,2013-04-08 00:32:00,
2013-04-07 20:42:00,44.0,28.0,-100.00,South,185,9.0,22.0,53,0.00,,,-99.99,,2013-04-08 00:42:00,
2013-04-07 20:52:00,43.0,28.0,-100.00,South,175,11.0,17.0,54,0.00,,,-99.99,,2013-04-08 00:52:00,
2013-04-07 21:03:00,43.0,28.0,-100.00,SSW,195,9.0,17.0,56,0.00,,,-99.99,,2013-04-08 01:03:00,
2013-04-07 21:12:00,43.0,29.0,-100.00,South,170,12.0,18.0,56,0.00,,,-99.99,,2013-04-08 01:12:00,
2013-04-07 21:22:00,43.0,29.0,-100.00,SSW,195,9.0,17.0,58,0.00,,,-99.99,,2013-04-08 01:22:00,
2013-04-07 21:33:00,43.0,30.0,-100.00,South,170,11.0,17.0,59,0.00,,,-99.99,,2013-04-08 01:33:00,
2013-04-07 21:43:00,42.0,30.0,-100.00,South,170,9.0,15.0,61,0.00,,,-99.99,,2013-04-08 01:43:00,
2013-04-07 21:53:00,42.0,31.0,-100.00,South,175,11.0,19.0,62,0.00,,,-99.99,,2013-04-08 01:53:00,
2013-04-07 22:03:00,42.0,31.0,-100.00,South,180,9.0,17.0,64,0.00,,,-99.99,,2013-04-08 02:03:00,
2013-04-07 22:12:00,42.0,32.0,-100.00,North,-999,-999.0,-999.0,66,0.00,,,-99.99,,2013-04-08 02:12:00,
2013-04-07 22:22:00,42.0,32.0,-100.00,SSW,195,8.0,16.0,67,0.00,,,-99.99,,2013-04-08 02:22:00,
2013-04-07 22:33:00,42.0,32.0,-100.00,SSW,210,9.0,18.0,68,0.00,,,-99.99,,2013-04-08 02:33:00,
2013-04-07 22:53:00,42.0,32.0,-100.00,SSW,210,9.0,18.0,68,0.00,,,-99.99,,2013-04-08 02:53:00,
2013-04-07 23:08:00,42.0,34.0,-100.00,SW,225,10.0,21.0,73,0.00,,,-99.99,,2013-04-08 03:08:00,
2013-04-07 23:36:00,42.0,35.0,-100.00,SSW,195,9.0,17.0,77,0.00,,,-99.99,,2013-04-08 03:36:00,
2013-04-07 23:48:00,42.0,36.0,-100.00,SSW,200,9.0,17.0,78,0.00,,,-99.99,,2013-04-08 03:48:00,
2013-04-07 23:53:00,42.0,36.0,-100.00,SSW,195,9.0,17.0,78,0.00,,,-99.99,,2013-04-08 03:53:00,